Temperature
8 8 7 7 7 7 7 7 7 7 7 6 6 6 6 5 5 6 6 6 6 6 6 7 7 7 8 8 9 9 9 9 9 10 12 13 13 14 13 13 14 14 14
8 8 7 7 7 7 7 7 6 6 6 6 5 5 5 5 5 5 4 5 5 5 5 5 6 6 6 7 8 8 9 9 9 9 11 11 12 13 13 13 13 13 13
8 8 8 7 7 7 7 7 6 6 5 5 5 5 4 4 4 4 4 4 4 4 4 4 4 4 5 5 6 6 7 8 8 9 10 11 11 11 12 12 13 13 13
8 8 8 8 7 7 7 7 6 6 5 5 4 4 4 4 4 3 3 3 3 3 3 3 3 3 4 4 4 4 5 6 6 8 9 10 10 10 10 11 11 12 12
8 8 8 8 8 7 7 7 6 6 5 5 4 4 4 4 3 3 3 3 2 2 2 2 2 2 3 3 3 3 4 4 5 7 8 8 9 9 9 9 9 10 11
8 8 8 8 8 7 7 7 6 6 5 4 4 4 4 3 3 3 3 2 2 2 2 2 2 2 2 2 2 3 3 3 4 6 6 7 7 7 7 7 7 7 8
8 8 8 8 7 7 7 7 6 6 5 4 4 4 4 3 3 3 3 2 2 2 2 2 1 1 1 2 2 2 2 2 3 4 5 5 6 6 6 5 5 5 6
8 8 8 7 7 7 7 7 6 5 5 4 4 4 4 4 4 3 3 3 2 2 2 2 1 1 1 1 1 1 1 1 3 3 3 4 4 4 4 4 3 4 4
7 7 7 7 7 7 7 6 6 6 5 5 5 4 4 4 4 4 4 3 3 3 3 2 2 2 2 2 1 1 0 1 2 2 2 2 2 1 1 2 3 3 3
7 7 7 7 7 7 6 6 6 5 5 5 5 4 4 4 4 3 3 3 3 3 2 2 2 2 2 1 1 0 0 1 1 1 1 1 -0 -1 -1 0 1 2 2
7 7 7 7 6 6 6 6 6 5 5 5 4 4 4 3 3 3 3 2 2 2 1 1 0 0 0 0 -0 -0 -0 -0 -1 -1 -1 -1 -2 -3 -2 -2 -1 0 1
7 7 6 6 6 6 6 6 5 5 5 4 4 4 3 3 3 2 2 1 1 0 -0 -1 -1 -1 -2 -2 -2 -2 -2 -2 -2 -2 -2 -3 -4 -4 -4 -3 -2 -2 -1
7 6 6 6 6 6 5 5 5 5 4 4 3 3 3 2 2 1 1 0 -0 -1 -1 -2 -2 -3 -3 -4 -4 -4 -4 -4 -4 -4 -3 -4 -5 -5 -5 -4 -4 -3 -2
6 6 6 6 6 5 5 5 5 4 4 3 3 3 2 2 1 1 -0 -1 -1 -2 -3 -3 -4 -4 -4 -5 -5 -5 -5 -5 -5 -5 -5 -5 -6 -6 -6 -6 -5 -4 -3
6 6 6 6 6 5 5 5 4 4 4 3 3 2 2 1 0 -0 -1 -2 -2 -3 -4 -4 -5 -5 -5 -5 -6 -6 -6 -6 -6 -6 -6 -6 -7 -7 -7 -7 -6 -5 -5
6 6 6 6 5 5 5 5 4 4 3 3 2 1 1 0 -0 -1 -2 -2 -3 -4 -4 -5 -5 -6 -6 -6 -6 -6 -6 -6 -6 -7 -7 -7 -7 -8 -8 -8 -7 -7 -6
7 6 6 6 5 5 5 4 4 3 3 2 2 1 0 -0 -1 -1 -2 -3 -3 -4 -5 -5 -6 -6 -6 -7 -7 -7 -7 -7 -7 -7 -8 -8 -8 -9 -9 -9 -8 -8 -7
7 6 6 6 5 5 4 4 4 3 3 2 1 1 -0 -1 -1 -2 -2 -3 -4 -4 -5 -6 -6 -7 -7 -7 -7 -7 -7 -7 -7 -8 -8 -8 -9 -9 -9 -9 -9 -9 -8
7 6 6 6 5 5 4 4 3 3 2 2 1 0 -0 -1 -2 -2 -2 -3 -4 -5 -5 -6 -7 -7 -8 -8 -8 -9 -8 -8 -8 -8 -8 -9 -9 -9 -10 -10 -10 -9 -9
7 6 6 6 5 5 4 4 3 3 2 1 1 0 -0 -1 -2 -2 -3 -3 -4 -5 -6 -7 -7 -8 -8 -8 -9 -9 -9 -8 -8 -9 -9 -9 -9 -9 -10 -10 -10 -10 -9
7 6 6 6 5 5 4 4 3 3 2 1 1 0 -0 -1 -2 -2 -3 -4 -5 -5 -6 -7 -8 -8 -9 -9 -10 -10 -9 -9 -9 -9 -9 -10 -9 -10 -10 -10 -10 -10 -9
8 7 7 6 5 5 4 4 3 3 2 1 1 0 -1 -1 -2 -3 -3 -4 -5 -6 -7 -8 -9 -9 -9 -10 -10 -11 -11 -10 -9 -10 -10 -10 -10 -10 -10 -10 -10 -10 -9
8 8 7 7 6 5 4 4 3 2 2 1 1 0 -1 -2 -2 -3 -4 -4 -5 -6 -7 -8 -9 -9 -10 -10 -10 -11 -11 -11 -11 -10 -10 -10 -10 -10 -10 -10 -10 -10 -9
10 9 8 7 6 5 4 4 3 2 2 1 1 -0 -1 -2 -2 -3 -4 -5 -6 -7 -8 -8 -9 -10 -10 -10 -10 -11 -11 -11 -12 -12 -11 -10 -11 -10 -10 -10 -10 -9 -9
11 10 9 7 6 5 4 3 3 2 2 1 0 -0 -1 -2 -3 -3 -4 -5 -6 -7 -8 -9 -9 -10 -10 -11 -11 -11 -11 -11 -11 -12 -12 -11 -11 -10 -10 -10 -10 -9 -9
11 10 9 8 6 5 4 3 3 2 2 1 0 -0 -1 -2 -3 -4 -4 -5 -6 -7 -8 -9 -9 -10 -10 -11 -11 -11 -11 -11 -12 -12 -12 -12 -12 -11 -10 -10 -10 -9 -9
Wind_Speed
1 4 6 7 9 10 11 13 14 15 16 17 18 19 19 20 21 22 23 24 24 25 26 26 27 28 28 28 29 29 29 28 28 28 28 29 30 29 28 27 27 23 27
8 7 6 7 9 10 11 12 13 14 15 16 17 18 18 19 20 21 22 23 23 24 25 25 26 27 27 28 29 29 29 29 29 28 28 27 29 29 28 27 26 23 26
13 9 5 8 9 10 11 12 13 14 14 16 17 17 18 19 19 20 21 22 22 23 24 25 25 26 26 27 28 28 29 29 29 29 27 25 26 28 28 27 26 25 25
14 9 5 8 9 9 10 11 12 13 14 15 16 17 18 18 19 20 21 21 22 23 23 24 24 25 26 27 27 27 28 29 29 28 25 24 25 26 28 27 26 25 25
13 9 6 8 8 9 9 10 11 12 13 14 16 17 17 18 19 19 21 21 22 22 23 23 24 25 26 26 27 27 28 29 28 27 26 26 24 26 28 27 27 26 25
13 9 6 8 8 8 8 9 10 11 12 14 15 16 17 18 18 19 20 21 21 22 23 23 24 25 25 26 27 27 28 28 25 26 26 26 25 27 29 28 27 26 26
12 9 6 7 7 7 7 8 9 10 12 13 15 16 17 18 18 19 20 20 21 22 23 23 24 25 25 26 26 27 28 27 25 25 25 25 27 29 29 29 28 27 26
14 10 6 7 6 6 6 7 8 9 11 12 14 15 17 18 18 18 20 20 21 22 23 23 24 25 26 26 26 27 27 26 25 24 24 24 27 29 30 30 29 28 27
15 12 9 8 6 5 5 6 7 8 10 11 13 14 16 17 18 18 20 21 22 22 23 24 25 25 26 26 26 27 26 26 25 22 22 22 26 30 31 31 31 30 29
13 13 11 9 7 5 4 5 6 7 8 10 11 13 14 16 17 18 20 21 22 22 23 23 24 25 26 26 27 27 26 24 23 22 21 22 29 31 31 32 32 31 31
8 10 12 10 7 5 4 4 5 5 6 8 9 10 11 14 16 17 19 20 20 20 21 22 23 24 24 24 26 26 24 21 23 21 20 26 31 31 32 32 32 33 32
9 7 12 11 9 5 3 2 3 3 4 6 6 8 10 12 14 15 17 18 19 18 19 20 22 21 21 20 22 23 20 23 21 21 22 30 31 32 33 33 34 34 34
10 9 11 13 10 7 4 2 1 2 2 3 4 6 8 10 12 14 15 16 17 16 16 17 18 18 18 18 18 19 20 21 20 21 24 30 32 34 34 34 34 35 35
10 10 10 14 12 8 5 3 3 2 1 1 2 4 6 7 9 10 11 13 14 14 14 14 15 16 17 17 17 17 19 20 21 22 24 30 33 34 35 35 35 35 36
12 11 9 15 13 10 7 5 4 3 2 1 1 2 3 4 4 6 8 10 12 12 12 13 14 15 14 15 16 17 19 21 21 22 23 30 33 34 35 35 35 36 36
14 12 9 13 14 11 8 6 5 4 3 3 3 2 1 1 2 4 6 8 11 12 12 13 14 13 12 13 14 17 19 20 20 22 24 27 31 33 34 35 35 36 36
14 13 11 13 14 12 9 7 6 5 4 4 5 4 4 3 3 4 6 8 10 12 13 13 13 11 11 12 11 16 17 18 20 22 24 24 25 29 32 34 35 36 37
14 14 12 13 13 12 10 8 6 5 5 5 6 6 6 5 5 6 6 8 11 12 11 10 7 5 6 7 7 10 15 16 20 22 22 23 24 24 28 33 35 36 36
17 16 14 10 11 12 11 9 6 5 5 6 6 8 8 7 7 7 8 10 11 10 9 9 6 5 7 8 9 8 8 12 16 20 20 22 23 25 25 29 34 35 36
16 15 14 12 11 12 10 6 4 3 5 6 7 9 9 9 8 8 8 10 10 7 6 6 6 6 6 8 11 11 9 11 13 12 16 20 22 25 26 27 27 28 32
15 15 15 13 11 8 5 4 3 3 3 4 8 9 10 9 9 9 8 9 8 5 5 6 5 7 6 6 7 11 10 9 9 8 11 13 18 23 24 25 24 23 24
19 18 17 16 14 11 7 4 3 3 3 5 7 8 9 9 9 8 8 8 8 5 6 7 6 4 6 6 6 11 10 11 8 12 8 11 12 16 18 22 23 23 22
20 21 19 17 15 12 9 5 3 2 1 2 3 4 8 9 9 9 10 9 9 6 5 7 7 6 7 6 4 5 8 10 16 12 12 12 10 12 12 17 20 21 22
22 18 17 17 15 13 11 8 8 6 5 5 4 4 7 9 9 9 10 10 9 8 6 7 6 6 7 8 7 5 7 9 11 14 12 9 12 14 13 14 15 19 21
18 17 16 16 15 13 12 12 9 8 6 4 4 5 5 7 9 10 11 10 10 9 8 8 7 8 6 7 8 7 8 8 8 10 17 19 15 12 11 13 12 13 18
14 15 15 16 16 14 14 12 11 11 9 7 6 6 5 4 6 10 11 11 11 10 9 9 8 9 8 8 8 8 9 8 10 10 13 17 17 16 14 13 11 10 14
Wind_Direction
151 64 74 70 65 59 54 49 45 41 39 36 33 32 30 29 27 25 23 21 19 17 15 13 11 10 9 8 6 4 4 3 3 3 2 358 354 350 350 350 349 347 346
123 87 83 81 72 65 58 51 46 42 40 37 34 31 30 28 27 25 22 20 18 16 14 12 10 8 7 6 4 2 1 1 1 2 2 357 351 346 346 346 345 343 343
110 98 80 89 78 69 61 54 48 44 41 37 34 30 28 27 26 24 22 19 17 15 13 11 9 7 6 4 2 0 360 359 359 1 0 355 348 343 342 342 341 340 340
116 111 103 97 84 73 63 56 49 44 41 37 33 29 27 26 24 23 20 18 15 14 12 10 8 7 5 3 2 1 360 358 358 0 358 352 347 340 339 338 338 337 336
119 116 115 104 90 77 65 57 49 44 40 37 32 29 27 25 23 22 19 16 14 12 11 9 8 7 5 4 3 1 360 358 1 2 357 349 346 338 336 335 334 333 331
127 126 122 110 97 83 68 57 50 43 38 35 32 29 27 23 21 21 17 14 13 11 10 9 9 7 6 5 3 1 359 357 7 2 353 346 341 333 333 332 330 328 326
143 139 129 115 101 86 71 58 50 43 37 34 31 29 26 21 19 20 15 13 12 11 11 10 9 8 7 5 3 0 358 358 5 356 347 341 335 331 331 329 327 324 322
149 144 122 116 101 85 69 59 50 43 37 34 30 28 25 20 17 18 13 11 12 10 10 9 8 8 6 4 2 360 359 1 0 349 341 340 332 330 328 326 324 321 318
149 142 127 110 95 77 60 57 50 44 37 34 28 26 24 19 16 16 11 10 10 9 9 7 7 6 5 3 360 358 359 359 355 345 341 335 329 329 327 324 321 317 314
147 146 139 126 109 90 66 53 48 42 35 32 25 23 24 20 17 15 9 9 9 8 7 5 4 3 2 359 356 355 357 354 346 343 339 330 330 327 323 320 317 314 311
153 153 150 138 126 112 98 67 51 43 34 35 28 24 28 27 22 16 8 8 7 6 5 2 0 360 358 354 352 352 352 346 343 340 334 328 328 324 321 318 315 311 308
172 172 162 151 144 132 120 97 67 65 51 44 40 39 37 32 23 16 10 8 5 3 1 358 356 354 351 346 345 346 343 342 340 335 330 327 325 323 320 316 312 309 305
177 175 171 161 157 153 157 164 134 104 69 47 44 43 39 33 24 17 10 5 1 357 354 350 348 344 339 336 336 336 336 336 331 328 324 324 323 321 317 314 310 306 303
176 179 174 167 164 168 176 192 192 180 158 61 57 51 44 35 21 11 2 354 349 345 340 339 335 331 329 329 328 327 328 326 322 321 319 321 320 318 315 312 308 304 301
181 179 175 170 170 174 184 201 200 205 210 200 140 86 57 42 13 354 343 339 335 333 329 327 326 323 322 323 322 324 319 316 314 313 314 315 316 315 312 310 307 303 299
183 180 175 172 174 175 183 200 213 220 223 208 194 177 153 29 330 318 317 321 321 323 322 320 317 314 313 314 314 316 312 309 308 307 308 309 311 311 310 308 305 302 298
183 177 175 175 174 175 185 202 213 223 223 215 214 207 209 238 269 282 292 302 310 318 319 319 315 315 318 319 314 312 310 306 305 304 304 303 303 305 306 305 304 300 296
179 178 180 177 173 176 184 197 210 222 223 225 226 223 226 242 260 268 278 290 304 311 314 312 307 312 309 307 306 306 306 305 303 302 300 298 299 299 300 301 300 299 296
181 179 181 173 171 176 182 190 201 216 223 233 238 236 238 245 257 264 273 286 299 303 306 312 324 304 307 309 307 302 300 301 299 298 296 295 295 295 295 297 298 298 296
183 181 179 175 173 171 170 174 185 212 230 245 249 247 243 247 259 267 276 285 294 293 294 295 298 297 294 300 310 310 298 294 292 288 289 294 295 294 294 293 293 293 294
183 183 182 179 177 166 160 168 184 215 229 248 254 247 243 249 261 269 277 285 288 279 278 289 295 299 297 299 307 313 303 283 279 285 286 290 293 293 292 292 291 289 291
190 189 187 186 182 179 175 166 171 180 211 233 242 244 244 252 263 271 272 274 280 279 285 292 296 291 298 314 308 318 316 313 306 311 291 293 293 295 295 295 293 291 289
197 194 192 189 185 182 171 154 152 151 234 241 234 236 245 258 267 272 277 277 276 268 272 282 285 281 297 300 274 282 304 310 316 307 303 298 295 297 294 295 294 293 293
203 195 191 186 184 181 172 172 172 187 205 218 216 227 252 262 266 272 277 277 273 269 264 277 293 279 285 299 296 259 261 282 300 309 309 299 299 300 298 299 298 298 297
199 192 189 184 184 181 179 180 181 197 208 217 226 242 250 259 262 269 275 274 269 267 267 271 277 275 271 279 289 292 291 287 275 291 305 310 308 302 300 299 296 297 300
191 189 186 185 187 184 184 184 187 196 204 214 228 238 245 246 257 264 271 268 266 266 267 269 267 268 268 270 277 280 286 289 296 294 297 303 305 305 303 301 296 298 302
Height
1612 1613 1614 1613 1612 1611 1610 1608 1606 1604 1602 1600 1597 1595 1593 1591 1588 1586 1583 1580 1577 1575 1572 1570 1567 1565 1562 1560 1557 1555 1553 1551 1549 1548 1547 1547 1547 1547 1547 1547 1546 1546 1546
1610 1612 1612 1612 1611 1610 1609 1607 1605 1603 1601 1599 1597 1595 1593 1591 1588 1586 1583 1580 1577 1574 1572 1569 1566 1564 1561 1558 1556 1554 1552 1549 1547 1545 1544 1544 1544 1544 1544 1544 1544 1543 1543
1609 1610 1610 1610 1610 1609 1607 1606 1604 1602 1600 1598 1596 1594 1592 1590 1588 1585 1582 1579 1577 1574 1571 1568 1565 1563 1560 1557 1555 1552 1550 1548 1545 1542 1541 1540 1540 1541 1540 1540 1540 1540 1540
1608 1609 1609 1609 1608 1607 1606 1604 1603 1601 1599 1597 1595 1593 1591 1589 1587 1584 1581 1579 1576 1573 1570 1567 1565 1562 1559 1556 1553 1550 1548 1545 1542 1540 1538 1537 1536 1536 1537 1536 1536 1536 1535
1606 1607 1607 1607 1607 1606 1604 1603 1601 1600 1598 1596 1594 1592 1590 1588 1585 1583 1580 1577 1575 1572 1569 1566 1564 1560 1557 1554 1551 1548 1545 1542 1539 1536 1536 1534 1533 1532 1532 1532 1532 1531 1531
1605 1606 1606 1606 1605 1604 1603 1602 1600 1598 1597 1595 1593 1591 1589 1586 1584 1581 1578 1576 1573 1570 1567 1565 1562 1559 1555 1552 1549 1546 1543 1539 1534 1533 1532 1531 1530 1529 1528 1528 1527 1527 1526
1603 1604 1604 1604 1604 1603 1602 1600 1599 1597 1595 1594 1591 1589 1586 1584 1581 1579 1576 1574 1571 1568 1565 1562 1559 1556 1553 1549 1546 1543 1539 1536 1531 1529 1528 1527 1526 1526 1525 1523 1523 1522 1521
1602 1602 1602 1602 1602 1601 1600 1599 1597 1596 1594 1592 1589 1587 1584 1582 1579 1577 1574 1572 1569 1566 1563 1560 1557 1554 1550 1547 1543 1540 1536 1532 1528 1526 1523 1522 1522 1521 1520 1519 1518 1517 1516
1600 1600 1601 1601 1600 1600 1599 1597 1596 1594 1592 1590 1588 1585 1583 1580 1577 1575 1572 1570 1567 1564 1561 1558 1555 1552 1548 1545 1541 1537 1533 1529 1525 1522 1520 1517 1517 1516 1515 1514 1513 1512 1511
1597 1598 1599 1599 1598 1598 1597 1595 1594 1592 1590 1588 1586 1583 1581 1578 1575 1573 1570 1568 1565 1562 1559 1556 1553 1549 1546 1542 1539 1534 1530 1526 1522 1519 1516 1514 1512 1511 1509 1508 1507 1506 1505
1594 1595 1596 1596 1596 1596 1595 1593 1592 1590 1588 1586 1583 1581 1578 1576 1573 1571 1568 1565 1562 1559 1556 1553 1549 1546 1543 1539 1535 1531 1527 1523 1519 1516 1512 1509 1507 1505 1504 1502 1501 1499 1498
1590 1592 1593 1594 1594 1593 1592 1591 1589 1587 1585 1583 1581 1578 1576 1573 1570 1568 1565 1562 1559 1556 1552 1549 1545 1542 1538 1535 1531 1527 1523 1519 1516 1512 1508 1505 1502 1500 1498 1496 1494 1492 1491
1587 1589 1590 1591 1591 1590 1589 1588 1586 1585 1583 1580 1578 1575 1573 1570 1568 1565 1561 1558 1555 1552 1548 1544 1541 1537 1533 1530 1526 1523 1519 1516 1512 1508 1504 1500 1497 1494 1492 1489 1487 1485 1484
1583 1585 1587 1588 1588 1587 1586 1585 1583 1582 1580 1577 1575 1572 1570 1567 1564 1561 1557 1554 1550 1547 1543 1539 1536 1532 1529 1525 1521 1518 1515 1511 1508 1504 1499 1496 1492 1488 1485 1482 1480 1477 1475
1579 1581 1583 1584 1585 1584 1583 1582 1580 1579 1576 1574 1571 1569 1566 1563 1560 1557 1553 1550 1546 1542 1538 1535 1531 1528 1524 1521 1517 1514 1510 1507 1503 1499 1494 1490 1486 1481 1478 1475 1472 1469 1467
1574 1577 1579 1580 1581 1580 1580 1578 1577 1575 1573 1570 1568 1565 1562 1559 1556 1552 1549 1545 1542 1538 1534 1530 1527 1523 1520 1516 1513 1509 1506 1502 1498 1494 1489 1484 1479 1475 1470 1467 1464 1461 1458
1571 1573 1575 1576 1577 1576 1576 1574 1573 1571 1569 1567 1564 1561 1558 1555 1552 1548 1545 1541 1538 1534 1530 1527 1523 1519 1516 1512 1508 1504 1501 1497 1493 1489 1484 1479 1473 1468 1463 1459 1456 1453 1450
1567 1568 1570 1571 1572 1572 1571 1570 1569 1567 1565 1563 1560 1557 1554 1551 1548 1544 1541 1537 1534 1530 1526 1522 1519 1515 1511 1507 1503 1499 1496 1492 1488 1483 1478 1473 1468 1462 1456 1451 1448 1444 1441
1562 1563 1565 1566 1567 1567 1567 1566 1564 1563 1561 1558 1555 1553 1550 1547 1543 1540 1537 1533 1529 1526 1522 1519 1515 1511 1507 1502 1498 1494 1490 1486 1482 1477 1472 1467 1462 1456 1450 1444 1440 1435 1431
1557 1558 1559 1560 1561 1562 1562 1561 1560 1558 1556 1554 1551 1549 1546 1543 1539 1536 1533 1529 1525 1521 1518 1514 1511 1507 1503 1499 1494 1489 1484 1480 1476 1471 1466 1461 1456 1450 1444 1438 1432 1427 1423
1550 1551 1552 1553 1554 1556 1556 1556 1554 1553 1551 1549 1546 1544 1541 1538 1535 1532 1528 1525 1521 1517 1514 1510 1506 1502 1499 1495 1489 1482 1477 1474 1470 1465 1461 1455 1449 1444 1438 1431 1426 1420 1415
1542 1543 1544 1545 1547 1549 1550 1550 1549 1548 1546 1544 1542 1539 1537 1534 1531 1527 1524 1520 1517 1513 1509 1506 1502 1498 1494 1492 1488 1480 1472 1467 1462 1459 1454 1448 1443 1438 1432 1426 1420 1414 1409
1534 1535 1536 1538 1540 1543 1544 1544 1543 1542 1541 1539 1537 1535 1532 1530 1527 1523 1519 1516 1512 1509 1505 1501 1498 1494 1490 1487 1486 1482 1475 1465 1458 1450 1446 1442 1437 1432 1426 1420 1414 1408 1403
1526 1528 1530 1532 1533 1535 1537 1537 1537 1536 1535 1534 1532 1530 1528 1525 1522 1518 1515 1511 1508 1504 1500 1497 1494 1491 1486 1482 1480 1477 1474 1467 1460 1447 1439 1435 1431 1426 1420 1415 1409 1403 1398
1521 1521 1523 1524 1526 1528 1529 1530 1530 1530 1529 1528 1526 1525 1523 1520 1517 1514 1510 1507 1503 1499 1496 1492 1489 1486 1482 1478 1474 1470 1466 1462 1457 1450 1438 1428 1422 1418 1415 1409 1404 1398 1393
1514 1514 1515 1517 1518 1520 1522 1523 1524 1524 1523 1522 1520 1519 1517 1515 1512 1509 1505 1502 1498 1494 1491 1487 1483 1480 1476 1473 1469 1465 1461 1456 1451 1445 1437 1427 1418 1411 1408 1404 1399 1394 1389